User: anonymous   Login
Location: Antin
(43.3330°N, 0.2804°E)
Time: 09:54:10
(UTC+00:00)
Language:

SL-24 DEB - Orbit

View from above orbital plane
View from above orbital plane
View from above satellite
View from above satellite

Ground track
Ground track

The orbit data is extracted from the following two-line orbital elements,

1 36602U 10028E   22228.50718794  .00001133  00000-0  22419-3 0  9994
2 36602  98.0507  71.6540 0019304 167.8605 192.3067 14.64088236648470
Epoch (UTC): 16 August 2022 12:10:21
Eccentricity: 0.0019304
inclination: 98.0507°
perigee height: 666 km
apogee height: 693 km
right ascension of ascending node: 71.6540°
argument of perigee: 167.8605°
revolutions per day: 14.64088236
mean anomaly at epoch: 192.3067°
orbit number at epoch: 64847

The dashed part of the orbit path shows where the satellite is in the earth's shadow,  

DLR